This demonstration page uses our WeatherBlox Daily Observations layout. Learn more.

38.88101, -77.10428

Hourly Observations for August 31, 2017

Temp ( °F °C ) Dew Point ( °F °C ) Humidity (%) Winds ( mph kmh ) Pressure ( in mb ) Visibility ( mi km ) Precip ( " mm )
12:52 am 00:52 Cloudy 71 21.7 64 17.8 79 79 SSW 7 11 30 1016 10 16.0934 0 0
1:52 am 01:52 Mostly Cloudy 70 21.1 64 17.8 82 82 SSW 7 11 29.98 1015 10 16.0934 0 0
2:52 am 02:52 Partly Cloudy 69 20.6 65 18.3 87 87 SW 3 6 29.99 1016 10 16.0934 0 0
3:52 am 03:52 Clear 69 20.6 65 18.3 87 87 SSW 3 6 29.98 1015 10 16.0934 0 0
4:52 am 04:52 Partly Cloudy 68 20 66 18.9 93 93 SSW 6 9 29.98 1015 10 16.0934 0 0
5:52 am 05:52 Partly Cloudy 68 20 66 18.9 93 93 WSW 3 6 29.99 1016 10 16.0934 0 0
6:52 am 06:52 Mostly Cloudy 68 20 66 18.9 93 93 SW 3 6 30 1016 10 16.0934 0 0
7:52 am 07:52 Mostly Cloudy 70 21.1 66 18.9 87 87 VRB 3 6 30.01 1016 10 16.0934 0 0
8:52 am 08:52 Mostly Cloudy 72 22.2 67 19.4 84 84 S 3 6 30.01 1016 10 16.0934 0 0
9:52 am 09:52 Cloudy 76 24.4 67 19.4 74 74 VRB 3 6 30.01 1016 10 16.0934 0 0
10:52 am 10:52 Cloudy 79 26.1 67 19.4 67 67 NNW 8 13 30.01 1016 10 16.0934 0 0
11:52 am 11:52 Cloudy 81 27.2 66 18.9 61 61 WNW 10 17 30 1016 10 16.0934 0 0
12:52 pm 12:52 Mostly Cloudy 82 27.8 66 18.9 58 58 VRB 6 9 29.98 1015 10 16.0934 0 0
1:52 pm 13:52 Mostly Cloudy 84 28.9 64 17.8 51 51 WNW 10 17 29.98 1015 10 16.0934 0 0
2:52 pm 14:52 Mostly Cloudy 85 29.4 62 16.7 46 46 WNW 8 13 29.95 1014 10 16.0934 0 0
3:52 pm 15:52 Mostly Cloudy 83 28.3 62 16.7 49 49 NW 10 17 29.94 1014 10 16.0934 0 0
4:52 pm 16:52 Mostly Cloudy 83 28.3 62 16.7 49 49 NW 8 13 29.93 1014 10 16.0934 0 0
5:52 pm 17:52 Mostly Cloudy 82 27.8 63 17.2 53 53 W 3 6 29.93 1014 10 16.0934 0 0
6:52 pm 18:52 Sunny 82 27.8 63 17.2 53 53 W 5 7 29.93 1014 10 16.0934 0 0
7:52 pm 19:52 Cloudy 80 26.7 64 17.8 58 58 SW 5 7 29.94 1014 10 16.0934 0 0
8:52 pm 20:52 Cloudy 80 26.7 64 17.8 58 58 WSW 5 7 29.95 1014 10 16.0934 0 0
9:52 pm 21:52 Cloudy 78 25.6 68 20 71 71 Calm 29.96 1015 10 16.0934 0 0
10:14 pm 22:14 Cloudy 77 25 67 19.4 71 71 N 10 17 29.97 1015 10 16.0934 0 0
10:52 pm 22:52 Cloudy 76 24.4 64 17.8 67 67 NNE 12 19 30 1016 10 16.0934 0 0
11:52 pm 23:52 Cloudy 74 23.3 63 17.2 69 69 NNE 10 17 30.02 1017 10 16.0934 0 0

Powered by AerisWeather